EGNX

East Midlands Airport

Airport
ICAO code
EGNX
IATA Code
EMA
Summary
ICAO Region
EUR
ICAO Territory
Location

Castle Donington, Leicestershire, England

Serving
Nottingham
Elevation
306 ft
Coordinates
52° 49' 51" N , 1° 19' 54" W
KCC
Metar
EGNX 181350Z 03005KT 340V090 9999 SCT023 19/13 Q1014

Description

International airport serving the cities of Nottingham, Leicester, Derby and the East Midlands region of England generally.

Climatology

Temperate Marine climate/Oceanic climate (Köppen climate classification Cfb). Moderately cool summer and comparatively warm winter with a temperature range of only 14°C. Prevailing south-westerly winds from the Atlantic Ocean.

Runways

Designator Length Width Surface Rops
9/27 2893 46 ASP Yes/Yes

SKYbrary Partners:

Safety knowledge contributed by: